| time (UTC) | temp F | wind direction | speed knots | gust knots | rain 1hr in | rain 24hr in | rain mn in | humidity % | barometer mb |
| 20260510060256 | 60 | 133 | 4.3 | 7.0 | 0.01 | 0.26 | 0.01 | 91 | 867.4 |
| 20260510055254 | 60 | 121 | 4.3 | 7.8 | 0.00 | 0.25 | 0.00 | 91 | 867.4 |
| 20260510054255 | 60 | 156 | 4.3 | 8.7 | 0.04 | 0.25 | 0.00 | 91 | 867.4 |
| 20260510053253 | 60 | 57 | 3.5 | 7.0 | 0.09 | 0.25 | 0.00 | 91 | 867.4 |
| 20260510052736 | 60 | 152 | 3.5 | 7.8 | 0.13 | 0.25 | 0.00 | 90 | 867.4 |
| 20260510051737 | 60 | 187 | 3.5 | 7.0 | 0.20 | 0.25 | 0.00 | 90 | 867.4 |
| 20260510050254 | 61 | 108 | 3.5 | 7.8 | 0.23 | 0.25 | 0.00 | 90 | 867.5 |
| 20260510050219 | 61 | 80 | 3.5 | 7.8 | 0.24 | 0.25 | 0.25 | 90 | 867.5 |
| 20260510044245 | 61 | 131 | 3.5 | 7.8 | 0.21 | 0.22 | 0.22 | 89 | 867.5 |
| 20260510044207 | 62 | 80 | 3.5 | 8.7 | 0.16 | 0.17 | 0.17 | 88 | 867.5 |
| 20260510042245 | 62 | 33 | 4.3 | 11.3 | 0.12 | 0.13 | 0.13 | 87 | 867.6 |
| 20260510041245 | 63 | 48 | 6.1 | 11.3 | 0.05 | 0.05 | 0.05 | 84 | 867.6 |
| 20260510040243 | 65 | 50 | 7.0 | 10.4 | 0.02 | 0.02 | 0.02 | 77 | 867.8 |
| 20260510035243 | 66 | 43 | 6.1 | 12.2 | 0.00 | 0.01 | 0.01 | 78 | 867.9 |
| 20260510034242 | 67 | 102 | 5.2 | 10.4 | 0.01 | 0.01 | 0.01 | 75 | 867.9 |
| 20260510033243 | 67 | 198 | 7.0 | 11.3 | 0.01 | 0.01 | 0.01 | 73 | 868.0 |
| 20260510032243 | 68 | 52 | 6.1 | 10.4 | 0.00 | 0.00 | 0.00 | 69 | 868.0 |
| 20260510031243 | 70 | 352 | 2.6 | 11.3 | 0.00 | 0.00 | 0.00 | 64 | 868.1 |
| 20260510030727 | 73 | 163 | 9.6 | 15.6 | 0.00 | 0.00 | 0.00 | 60 | 868.2 |
| 20260510025727 | 77 | 30 | 3.5 | 7.0 | 0.00 | 0.00 | 0.00 | 50 | 868.9 |
| 20260510024243 | 76 | 359 | 5.2 | 13.0 | 0.00 | 0.00 | 0.00 | 47 | 868.9 |
| 20260510023728 | 73 | 354 | 7.0 | 16.5 | 0.00 | 0.00 | 0.00 | 55 | 868.7 |
| 20260510022244 | 73 | 226 | 6.1 | 15.6 | 0.00 | 0.00 | 0.00 | 57 | 868.5 |
| 20260510021244 | 75 | 218 | 9.6 | 17.4 | 0.00 | 0.00 | 0.00 | 55 | 868.6 |
| 20260510020241 | 76 | 157 | 5.2 | 13.9 | 0.00 | 0.00 | 0.00 | 53 | 868.8 |
| 20260510015241 | 77 | 194 | 10.4 | 17.4 | 0.00 | 0.00 | 0.00 | 49 | 868.9 |
| 20260510014239 | 77 | 234 | 7.0 | 11.3 | 0.00 | 0.00 | 0.00 | 51 | 868.8 |
| 20260510013239 | 77 | 232 | 7.8 | 12.2 | 0.00 | 0.00 | 0.00 | 50 | 868.9 |
| 20260510012721 | 78 | 213 | 12.2 | 20.9 | 0.00 | 0.00 | 0.00 | 52 | 868.9 |
| 20260510011716 | 78 | 225 | 13.9 | 23.5 | 0.00 | 0.00 | 0.00 | 51 | 868.9 |
| 20260510010240 | 78 | 243 | 13.0 | 19.1 | 0.00 | 0.00 | 0.00 | 55 | 868.9 |
| 20260510005239 | 80 | 249 | 8.7 | 19.1 | 0.00 | 0.00 | 0.00 | 49 | 869.0 |
| 20260510004240 | 79 | 263 | 3.5 | 7.8 | 0.00 | 0.00 | 0.00 | 48 | 869.0 |
| 20260510003239 | 80 | 227 | 3.5 | 7.8 | 0.00 | 0.00 | 0.00 | 48 | 869.1 |
| 20260510002236 | 80 | 212 | 4.3 | 7.8 | 0.00 | 0.00 | 0.00 | 49 | 869.1 |
| 20260510001237 | 81 | 109 | 3.5 | 7.8 | 0.00 | 0.00 | 0.00 | 48 | 869.1 |
| 20260510000236 | 81 | 215 | 2.6 | 10.4 | 0.00 | 0.00 | 0.00 | 46 | 869.2 |
| 20260509235237 | 82 | 306 | 3.5 | 8.7 | 0.00 | 0.00 | 0.00 | 44 | 869.2 |
| 20260509234237 | 82 | 274 | 3.5 | 7.8 | 0.00 | 0.00 | 0.00 | 43 | 869.3 |
| 20260509233237 | 83 | 319 | 3.5 | 11.3 | 0.00 | 0.00 | 0.00 | 43 | 869.3 |
| 20260509232235 | 83 | 160 | 4.3 | 11.3 | 0.00 | 0.00 | 0.00 | 41 | 869.4 |
| 20260509230236 | 85 | 284 | 3.5 | 9.6 | 0.00 | 0.00 | 0.00 | 41 | 869.5 |
| 20260509225236 | 86 | 199 | 2.6 | 6.1 | 0.00 | 0.00 | 0.00 | 38 | 869.7 |
| 20260509225205 | 86 | 257 | 5.2 | 9.6 | 0.00 | 0.00 | 0.00 | 39 | 869.7 |
| 20260509223722 | 87 | 183 | 4.3 | 13.9 | 0.00 | 0.00 | 0.00 | 40 | 869.8 |
| 20260509222710 | 87 | 225 | 4.3 | 13.0 | 0.00 | 0.00 | 0.00 | 40 | 869.8 |
| 20260509221233 | 86 | 338 | 5.2 | 13.0 | 0.00 | 0.00 | 0.00 | 40 | 869.8 |
| 20260509220232 | 87 | 208 | 4.3 | 11.3 | 0.00 | 0.00 | 0.00 | 41 | 869.7 |
| 20260509220144 | 87 | 212 | 4.3 | 12.2 | 0.00 | 0.00 | 0.00 | 41 | 869.8 |
| 20260509214232 | 87 | 250 | 3.5 | 11.3 | 0.00 | 0.02 | 0.00 | 41 | 869.8 |
| 20260509213232 | 87 | 196 | 5.2 | 11.3 | 0.00 | 0.06 | 0.00 | 40 | 869.8 |
| 20260509212705 | 87 | 193 | 4.3 | 13.0 | 0.00 | 0.11 | 0.00 | 39 | 869.8 |
| 20260509212208 | 87 | 231 | 5.2 | 13.0 | 0.00 | 0.11 | 0.00 | 39 | 869.8 |
| 20260509210713 | 86 | 237 | 5.2 | 11.3 | 0.00 | 0.11 | 0.00 | 38 | 869.7 |
| 20260509205232 | 86 | 225 | 6.1 | 15.6 | 0.00 | 0.11 | 0.00 | 38 | 869.7 |
| 20260509204232 | 86 | 237 | 7.0 | 12.2 | 0.00 | 0.11 | 0.00 | 35 | 869.7 |
| 20260509203228 | 86 | 235 | 7.0 | 12.2 | 0.00 | 0.11 | 0.00 | 35 | 869.7 |
| 20260509202228 | 86 | 223 | 5.2 | 11.3 | 0.00 | 0.11 | 0.00 | 36 | 869.8 |
| 20260509201715 | 86 | 210 | 5.2 | 10.4 | 0.00 | 0.11 | 0.00 | 35 | 869.7 |
| 20260509200229 | 85 | 220 | 5.2 | 8.7 | 0.00 | 0.11 | 0.00 | 36 | 869.6 |
| 20260509195228 | 85 | 203 | 5.2 | 11.3 | 0.00 | 0.11 | 0.00 | 37 | 869.6 |
| 20260509194718 | 85 | 201 | 4.3 | 13.9 | 0.00 | 0.11 | 0.00 | 36 | 869.7 |
| 20260509193229 | 84 | 212 | 7.0 | 13.0 | 0.00 | 0.11 | 0.00 | 35 | 869.6 |
| 20260509192227 | 83 | 207 | 5.2 | 13.9 | 0.00 | 0.11 | 0.00 | 38 | 869.5 |
| 20260509191227 | 83 | 211 | 7.8 | 12.2 | 0.00 | 0.11 | 0.00 | 38 | 869.5 |
| 20260509190702 | 84 | 217 | 4.3 | 13.9 | 0.00 | 0.11 | 0.00 | 36 | 869.5 |
| 20260509185227 | 82 | 185 | 7.0 | 11.3 | 0.00 | 0.11 | 0.00 | 41 | 869.4 |
| 20260509184228 | 82 | 211 | 5.2 | 11.3 | 0.00 | 0.11 | 0.00 | 39 | 869.4 |
| 20260509183228 | 82 | 214 | 3.5 | 11.3 | 0.00 | 0.11 | 0.00 | 38 | 869.5 |
| 20260509182228 | 82 | 2 | 5.2 | 13.0 | 0.00 | 0.11 | 0.00 | 40 | 869.3 |
| 20260509181224 | 82 | 215 | 6.1 | 12.2 | 0.00 | 0.11 | 0.00 | 40 | 869.4 |
| 20260509180224 | 81 | 71 | 5.2 | 13.0 | 0.00 | 0.11 | 0.00 | 41 | 869.3 |
| 20260509175224 | 82 | 241 | 5.2 | 10.4 | 0.00 | 0.11 | 0.00 | 39 | 869.4 |
| 20260509174225 | 81 | 227 | 5.2 | 11.3 | 0.00 | 0.11 | 0.00 | 38 | 869.3 |
| 20260509173225 | 81 | 231 | 6.1 | 11.3 | 0.00 | 0.11 | 0.00 | 37 | 869.3 |
| 20260509172227 | 81 | 96 | 3.5 | 11.3 | 0.00 | 0.11 | 0.00 | 39 | 869.4 |
| 20260509171223 | 81 | 216 | 5.2 | 13.9 | 0.00 | 0.11 | 0.00 | 38 | 869.3 |
| 20260509170700 | 81 | 286 | 4.3 | 9.6 | 0.00 | 0.11 | 0.00 | 39 | 869.3 |
| 20260509165222 | 80 | 69 | 4.3 | 9.6 | 0.00 | 0.11 | 0.00 | 40 | 869.3 |
| 20260509164223 | 80 | 242 | 2.6 | 9.6 | 0.00 | 0.11 | 0.00 | 41 | 869.2 |
| 20260509163222 | 79 | 319 | 2.6 | 7.8 | 0.00 | 0.11 | 0.00 | 42 | 869.2 |
| 20260509162220 | 78 | 157 | 5.2 | 11.3 | 0.00 | 0.11 | 0.00 | 41 | 869.1 |
| 20260509161218 | 77 | 216 | 5.2 | 10.4 | 0.00 | 0.11 | 0.00 | 43 | 869.1 |
| 20260509160219 | 77 | 226 | 4.3 | 10.4 | 0.00 | 0.11 | 0.00 | 44 | 869.0 |
| 20260509155219 | 77 | 205 | 4.3 | 9.6 | 0.00 | 0.11 | 0.00 | 45 | 869.0 |
| 20260509154219 | 76 | 232 | 4.3 | 9.6 | 0.00 | 0.11 | 0.00 | 45 | 868.9 |
| 20260509153659 | 76 | 219 | 3.5 | 7.8 | 0.00 | 0.11 | 0.00 | 47 | 868.9 |
| 20260509153148 | 75 | 197 | 2.6 | 6.1 | 0.00 | 0.11 | 0.00 | 47 | 868.9 |
| 20260509151214 | 75 | 200 | 2.6 | 7.0 | 0.00 | 0.11 | 0.00 | 48 | 868.8 |
| 20260509145653 | 73 | 216 | 4.3 | 6.1 | 0.00 | 0.11 | 0.00 | 52 | 868.6 |
| 20260509144215 | 73 | 220 | 3.5 | 6.1 | 0.00 | 0.11 | 0.00 | 49 | 868.6 |
| 20260509143215 | 74 | 195 | 1.7 | 5.2 | 0.00 | 0.11 | 0.00 | 52 | 868.6 |
| 20260509142215 | 74 | 0 | 0.9 | 3.5 | 0.00 | 0.11 | 0.00 | 51 | 868.7 |
| 20260509141215 | 73 | 140 | 0.9 | 3.5 | 0.00 | 0.11 | 0.00 | 57 | 868.7 |
| 20260509140214 | 72 | 42 | 1.7 | 2.6 | 0.00 | 0.11 | 0.00 | 57 | 868.6 |
| 20260509135214 | 71 | 0 | 0.9 | 4.3 | 0.00 | 0.11 | 0.00 | 59 | 868.6 |
| 20260509134215 | 68 | 0 | 1.7 | 3.5 | 0.00 | 0.11 | 0.00 | 66 | 868.2 |
| 20260509133214 | 67 | 320 | 0.9 | 3.5 | 0.00 | 0.11 | 0.00 | 72 | 868.1 |
| 20260509132655 | 65 | 358 | 0.9 | 2.6 | 0.00 | 0.11 | 0.00 | 74 | 868.0 |
| 20260509131215 | 62 | 0 | 0.0 | 2.6 | 0.00 | 0.11 | 0.00 | 86 | 867.8 |
| 20260509130650 | 58 | 280 | 0.9 | 2.6 | 0.00 | 0.11 | 0.00 | 88 | 867.4 |
| 20260509125211 | 57 | 236 | 0.0 | 1.7 | 0.00 | 0.11 | 0.00 | 87 | 867.2 |
| 20260509124211 | 56 | 250 | 0.9 | 2.6 | 0.00 | 0.11 | 0.00 | 88 | 867.1 |
| 20260509123212 | 55 | 0 | 0.9 | 3.5 | 0.00 | 0.11 | 0.00 | 92 | 867.1 |
| 20260509122211 | 53 | 24 | 1.7 | 3.5 | 0.00 | 0.11 | 0.00 | 93 | 866.9 |
| 20260509121210 | 53 | 359 | 0.9 | 2.6 | 0.00 | 0.11 | 0.00 | 94 | 866.8 |
| 20260509120647 | 53 | 0 | 1.7 | 2.6 | 0.00 | 0.11 | 0.00 | 94 | 866.8 |
| 20260509115211 | 52 | 265 | 2.6 | 4.3 | 0.00 | 0.11 | 0.00 | 96 | 866.9 |
| 20260509114202 | 51 | 232 | 3.5 | 5.2 | 0.00 | 0.11 | 0.00 | 95 | 866.7 |
| 20260509113202 | 51 | 243 | 3.5 | 5.2 | 0.00 | 0.11 | 0.00 | 93 | 866.7 |
| 20260509112158 | 51 | 259 | 1.7 | 3.5 | 0.00 | 0.11 | 0.00 | 92 | 866.7 |
| 20260509111144 | 53 | 40 | 1.7 | 3.5 | 0.00 | 0.11 | 0.00 | 92 | 866.8 |
| 20260509110617 | 53 | 340 | 1.7 | 5.2 | 0.00 | 0.11 | 0.00 | 92 | 866.8 |
| 20260509105132 | 53 | 271 | 3.5 | 6.1 | 0.00 | 0.11 | 0.00 | 91 | 866.8 |
| 20260509104130 | 53 | 251 | 1.7 | 4.3 | 0.00 | 0.11 | 0.00 | 91 | 866.9 |
| 20260509103129 | 54 | 344 | 2.6 | 4.3 | 0.00 | 0.11 | 0.00 | 89 | 866.9 |
| 20260509102130 | 54 | 328 | 1.7 | 2.6 | 0.00 | 0.11 | 0.00 | 89 | 867.0 |
| 20260509101130 | 54 | 328 | 1.7 | 4.3 | 0.00 | 0.11 | 0.00 | 89 | 867.0 |
| 20260509100121 | 54 | 275 | 3.5 | 4.3 | 0.00 | 0.11 | 0.00 | 88 | 866.9 |
| 20260509095115 | 54 | 312 | 1.7 | 3.5 | 0.00 | 0.11 | 0.00 | 86 | 866.9 |
| 20260509094115 | 55 | 308 | 0.9 | 1.7 | 0.00 | 0.11 | 0.00 | 84 | 867.0 |
| 20260509093115 | 54 | 8 | 2.6 | 3.5 | 0.00 | 0.11 | 0.00 | 85 | 867.0 |
| 20260509092114 | 55 | 355 | 1.7 | 3.5 | 0.00 | 0.11 | 0.00 | 82 | 867.0 |
| 20260509091115 | 55 | 9 | 0.0 | 1.7 | 0.00 | 0.11 | 0.00 | 82 | 867.0 |
| 20260509090114 | 56 | 335 | 0.9 | 2.6 | 0.00 | 0.11 | 0.00 | 80 | 867.0 |
| 20260509085114 | 56 | 0 | 0.9 | 1.7 | 0.00 | 0.11 | 0.00 | 81 | 867.1 |
| 20260509084101 | 57 | 270 | 1.7 | 2.6 | 0.00 | 0.11 | 0.00 | 80 | 867.1 |
| 20260509083102 | 58 | 2 | 1.7 | 2.6 | 0.00 | 0.11 | 0.00 | 79 | 867.2 |
| 20260509082102 | 58 | 321 | 1.7 | 3.5 | 0.00 | 0.11 | 0.00 | 76 | 867.3 |
| 20260509081102 | 57 | 21 | 1.7 | 3.5 | 0.00 | 0.11 | 0.00 | 80 | 867.2 |
| 20260509075048 | 58 | 285 | 1.7 | 2.6 | 0.00 | 0.11 | 0.00 | 76 | 867.3 |
| 20260509074056 | 58 | 319 | 1.7 | 4.3 | 0.00 | 0.11 | 0.00 | 73 | 867.3 |
| 20260509073048 | 59 | 4 | 1.7 | 4.3 | 0.00 | 0.11 | 0.00 | 72 | 867.3 |
| 20260509072047 | 60 | 280 | 1.7 | 1.7 | 0.00 | 0.11 | 0.00 | 71 | 867.4 |
| 20260509071048 | 60 | 225 | 0.9 | 1.7 | 0.00 | 0.11 | 0.00 | 69 | 867.4 |
| 20260509070047 | 60 | 286 | 0.9 | 1.7 | 0.00 | 0.11 | 0.00 | 67 | 867.4 |
| 20260509065033 | 60 | 250 | 0.0 | 1.7 | 0.00 | 0.11 | 0.00 | 66 | 867.5 |
| 20260509064033 | 61 | 0 | 0.0 | 0.0 | 0.00 | 0.11 | 0.00 | 66 | 867.5 |
| 20260509063017 | 61 | 0 | 0.0 | 0.9 | 0.00 | 0.11 | 0.00 | 64 | 867.5 |
| 20260509062018 | 62 | 227 | 0.0 | 1.7 | 0.00 | 0.11 | 0.00 | 62 | 867.5 |